Madisonville, KY

2:26 PM CDT on July 24, 2017 (GMT -0500)
Madisonville

Weather History for K2I0 - February, 2012

Change the Weather History Date:

Tuesday, February 7, 2012

  Actual Average (KOWB) Record (KOWB)
Temperature  
Mean Temperature 40 °F -  
Max Temperature 51 °F 39 °F 66 °F (2013)
Min Temperature 28 °F 21 °F -2 °F (1984)
Degree Days  
Heating Degree Days 26    
Moisture  
Dew Point 32 °F    
Average Humidity 74    
Maximum Humidity 100    
Minimum Humidity 44    
Precipitation  
Precipitation 0.00 in - - ()
Sea Level Pressure  
Sea Level Pressure 30.24 in    
Wind  
Wind Speed 2 mph ()    
Max Wind Speed 12 mph    
Max Gust Speed -    
Visibility 9.2 miles    
Events Rain    
Averages and records for this station are not official NWS values.
T = Trace of Precipitation, MM = Missing Value Source: Averaged Metar Reports

Daily Weather History Graph

Daily Weather History Graph

Search for Another Location

Airport or City:

Trip Planner

Search our weather history database for the weather conditions in past years. The results will help you decide how hot, cold, wet, or windy it might be!

Date:

Astronomy

Feb. 07, 2012 Rise Set
Actual Time 6:47 AM CST 5:20 PM CST
Civil Twilight 6:20 AM CST 5:47 PM CST
Nautical Twilight 5:49 AM CST 6:18 PM CST
Astronomical Twilight 5:19 AM CST 6:48 PM CST
Moon 5:29 PM CST (2/7) 6:17 AM CST (2/7)
Length of Visible Light 11h 26m
Length of Day
10h 32m
Full, 100% of the Moon is Illuminated
Feb 7
Full
Feb 7
Full
Feb 14
Last Quarter
Feb 21
New
Feb 29
First Quarter

Hourly Weather History & Observations

Time (CST) Temp. Windchill Dew Point Humidity Pressure Visibility Wind Dir Wind Speed Gust Speed Precip Events Conditions
12:15 AM 32.0 °F - 30.2 °F 93% 30.24 in 10.0 mi Calm Calm - N/A   Clear
12:35 AM 32.0 °F 28.7 °F 30.2 °F 93% 30.24 in 10.0 mi SW 3.5 mph - N/A   Clear
12:55 AM 32.0 °F - 32.0 °F 100% 30.23 in 10.0 mi Calm Calm - N/A   Clear
1:15 AM 32.0 °F 28.7 °F 30.2 °F 93% 30.23 in 10.0 mi WSW 3.5 mph - N/A   Clear
1:35 AM 32.0 °F 28.7 °F 30.2 °F 93% 30.24 in 10.0 mi SSW 3.5 mph - N/A   Clear
1:55 AM 32.0 °F - 30.2 °F 93% 30.23 in 10.0 mi Calm Calm - N/A   Clear
2:15 AM 32.0 °F - 30.2 °F 93% 30.23 in 7.0 mi Calm Calm - N/A   Clear
2:35 AM 32.0 °F 27.5 °F 30.2 °F 93% 30.23 in 7.0 mi SW 4.6 mph - N/A   Clear
2:55 AM 30.2 °F - 28.4 °F 93% 30.22 in 10.0 mi Calm Calm - N/A   Clear
3:15 AM 30.2 °F - 28.4 °F 93% 30.23 in 10.0 mi Calm Calm - N/A   Clear
3:35 AM 30.2 °F 26.7 °F 28.4 °F 93% 30.23 in 10.0 mi SSW 3.5 mph - N/A   Clear
3:55 AM 32.0 °F - 30.2 °F 93% 30.22 in 10.0 mi Calm Calm - N/A   Clear
4:15 AM 32.0 °F - 30.2 °F 93% 30.22 in 10.0 mi Calm Calm - N/A   Clear
4:35 AM 30.2 °F 26.7 °F 30.2 °F 100% 30.22 in 10.0 mi SW 3.5 mph - N/A   Clear
4:55 AM 30.2 °F - 28.4 °F 93% 30.22 in 10.0 mi Calm Calm - N/A   Clear
5:15 AM 30.2 °F - 28.4 °F 93% 30.23 in 7.0 mi Calm Calm - N/A   Clear
5:35 AM 30.2 °F - 28.4 °F 93% 30.23 in 7.0 mi Calm Calm - N/A   Clear
5:55 AM 30.2 °F 26.7 °F 28.4 °F 93% 30.24 in 7.0 mi South 3.5 mph - N/A   Clear
6:15 AM 28.4 °F - 26.6 °F 93% 30.24 in 7.0 mi Calm Calm - N/A   Clear
6:35 AM 28.4 °F - 28.4 °F 100% 30.24 in 7.0 mi Calm Calm - N/A   Clear
6:55 AM 28.4 °F - 28.4 °F 100% 30.24 in 7.0 mi Calm Calm - N/A   Clear
7:15 AM 30.2 °F - 28.4 °F 93% 30.25 in 7.0 mi Calm Calm - N/A   Clear
7:35 AM 30.2 °F - 30.2 °F 100% 30.26 in 7.0 mi Calm Calm - N/A   Clear
7:55 AM 32.0 °F 28.7 °F 30.2 °F 93% 30.27 in 7.0 mi SW 3.5 mph - N/A   Clear
8:15 AM 33.8 °F - 32.0 °F 93% 30.28 in 7.0 mi Calm Calm - N/A   Clear
8:35 AM 35.6 °F - 32.0 °F 87% 30.28 in 10.0 mi Calm Calm - N/A   Clear
8:55 AM 37.4 °F - 33.8 °F 87% 30.28 in 10.0 mi Calm Calm - N/A   Clear
9:15 AM 41.0 °F 39.0 °F 35.6 °F 81% 30.28 in 10.0 mi West 3.5 mph - N/A   Clear
9:35 AM 42.8 °F 41.1 °F 35.6 °F 76% 30.28 in 10.0 mi WNW 3.5 mph - N/A   Clear
9:55 AM 44.6 °F - 33.8 °F 66% 30.28 in 10.0 mi Calm Calm - N/A   Clear
10:15 AM 46.4 °F 44.3 °F 33.8 °F 62% 30.27 in 10.0 mi NNE 4.6 mph - N/A   Clear
10:35 AM 46.4 °F - 32.0 °F 57% 30.27 in 10.0 mi Calm Calm - N/A   Clear
10:55 AM 46.4 °F - 32.0 °F 57% 30.27 in 10.0 mi Calm Calm - N/A   Clear
11:15 AM 48.2 °F - 32.0 °F 54% 30.26 in 10.0 mi Calm Calm - N/A   Clear
11:35 AM 48.2 °F - 32.0 °F 54% 30.26 in 10.0 mi Calm Calm - N/A   Clear
11:55 AM 50.0 °F - 32.0 °F 50% 30.25 in 10.0 mi Calm Calm - N/A   Clear
12:15 PM 50.0 °F - 32.0 °F 50% 30.24 in 10.0 mi SSW 4.6 mph - N/A   Clear
12:35 PM 50.0 °F - 32.0 °F 50% 30.24 in 10.0 mi SW 3.5 mph - N/A   Clear
12:55 PM 50.0 °F - 32.0 °F 50% 30.23 in 10.0 mi West 8.1 mph - N/A   Clear
1:15 PM 50.0 °F - 32.0 °F 50% 30.22 in 10.0 mi WSW 6.9 mph - N/A   Clear
1:35 PM 51.8 °F - 30.2 °F 44% 30.21 in 10.0 mi NE 3.5 mph - N/A   Clear
1:55 PM 51.8 °F - 30.2 °F 44% 30.21 in 10.0 mi North 3.5 mph - N/A   Clear
2:15 PM 51.8 °F - 30.2 °F 44% 30.21 in 10.0 mi NW 3.5 mph - N/A   Clear
2:35 PM 51.8 °F - 32.0 °F 47% 30.21 in 10.0 mi NW 3.5 mph - N/A   Clear
2:55 PM 51.8 °F - 32.0 °F 47% 30.21 in 10.0 mi North 8.1 mph - N/A   Clear
3:15 PM 51.8 °F - 32.0 °F 47% 30.22 in 10.0 mi North 11.5 mph - N/A   Clear
3:35 PM 51.8 °F - 32.0 °F 47% 30.22 in 10.0 mi North 10.4 mph - N/A   Clear
3:55 PM 50.0 °F - 32.0 °F 50% 30.22 in 10.0 mi North 5.8 mph - N/A   Clear
4:15 PM 50.0 °F - 32.0 °F 50% 30.22 in 10.0 mi NNW 8.1 mph - N/A   Scattered Clouds
4:35 PM 48.2 °F - 32.0 °F 54% 30.22 in 10.0 mi North 9.2 mph - N/A   Mostly Cloudy
4:55 PM 46.4 °F 42.4 °F 32.0 °F 57% 30.23 in 10.0 mi North 8.1 mph - N/A   Mostly Cloudy
5:15 PM 46.4 °F 42.4 °F 33.8 °F 62% 30.22 in 10.0 mi North 8.1 mph - N/A   Scattered Clouds
5:35 PM 44.6 °F 41.4 °F 35.6 °F 71% 30.23 in 10.0 mi North 5.8 mph - N/A   Scattered Clouds
6:15 PM 44.6 °F 43.1 °F 35.6 °F 71% 30.24 in 10.0 mi North 3.5 mph - N/A   Overcast
6:35 PM 44.6 °F - 33.8 °F 66% 30.24 in 10.0 mi Calm Calm - N/A   Overcast
6:55 PM 44.6 °F - 33.8 °F 66% 30.24 in 10.0 mi Calm Calm - N/A   Overcast
7:15 PM 44.6 °F - 33.8 °F 66% 30.24 in 10.0 mi Calm Calm - N/A   Overcast
7:35 PM 44.6 °F - 33.8 °F 66% 30.24 in 10.0 mi Calm Calm - N/A   Overcast
7:55 PM 42.8 °F 41.1 °F 35.6 °F 76% 30.24 in 10.0 mi North 3.5 mph - N/A   Overcast
8:15 PM 44.6 °F 43.1 °F 33.8 °F 66% 30.24 in 10.0 mi NE 3.5 mph - N/A   Overcast
8:35 PM 44.6 °F 43.1 °F 35.6 °F 71% 30.24 in 10.0 mi NE 3.5 mph - N/A   Overcast
8:55 PM 44.6 °F 40.7 °F 35.6 °F 71% 30.24 in 10.0 mi NE 6.9 mph - N/A   Overcast
9:15 PM 42.8 °F 40.1 °F 35.6 °F 76% 30.25 in 10.0 mi NNE 4.6 mph - N/A   Overcast
9:35 PM 42.8 °F 40.1 °F 35.6 °F 76% 30.25 in 7.0 mi NNE 4.6 mph - N/A   Overcast
9:55 PM 41.0 °F 36.4 °F 35.6 °F 81% 30.26 in 7.0 mi NNE 6.9 mph - N/A   Overcast
10:15 PM 41.0 °F 38.0 °F 35.6 °F 81% 30.26 in 7.0 mi NNE 4.6 mph - N/A   Overcast
10:35 PM 41.0 °F 36.4 °F 35.6 °F 81% 30.26 in 7.0 mi North 6.9 mph - N/A   Overcast
10:55 PM 41.0 °F 35.8 °F 35.6 °F 81% 30.26 in 7.0 mi North 8.1 mph - N/A   Overcast
11:15 PM 41.0 °F 35.8 °F 35.6 °F 81% 30.26 in 7.0 mi North 8.1 mph - N/A   Overcast
11:35 PM 41.0 °F 35.8 °F 35.6 °F 81% 30.26 in 7.0 mi North 8.1 mph - N/A   Overcast
11:55 PM 41.0 °F 35.2 °F 33.8 °F 76% 30.27 in 7.0 mi North 9.2 mph - N/A Rain Rain